When you browse on this site, cookies collect data to enhance your experience and personalize the content and advertising you see.
Visit our Privacy Policy to learn more. By continuing to use the site, you agree to this use of cookies and data.
  • In Portugal
  • List of Countries
  • For 7 days
  • Water Temperature
  • Weather Map
  • Weather Widgets
  • user-avatar
    Login

    Hourly Weather Tobruk

    Today, 2 April, Thursday

    Time Temperature Precipitation Wind Pressure Humidity
    00:00 +16°C° 0 mm 2 mps 759 mmHg 76%
    01:00 +16°C° 0 mm 1 mps 759 mmHg 77%
    02:00 +15°C° 0 mm 1 mps 758 mmHg 78%
    03:00 +15°C° 0 mm 2 mps 758 mmHg 78%
    04:00 +14°C° 0 mm 3 mps 758 mmHg 77%
    05:00 +14°C° 0 mm 4 mps 758 mmHg 76%
    06:00 +15°C° 0 mm 4 mps 758 mmHg 71%
    07:00 +17°C° 0 mm 4 mps 758 mmHg 66%
    08:00 +16°C° 0 mm 5 mps 758 mmHg 60%
    09:00 +19°C° 0 mm 4 mps 758 mmHg 52%
    10:00 +21°C° 0 mm 4 mps 758 mmHg 43%
    11:00 +23°C° 0 mm 4 mps 759 mmHg 34%
    12:00 +25°C° 0 mm 3 mps 758 mmHg 33%
    13:00 +25°C° 0 mm 3 mps 758 mmHg 31%
    14:00 +26°C° 0 mm 3 mps 758 mmHg 29%
    15:00 +25°C° 0 mm 4 mps 757 mmHg 34%
    16:00 +23°C° 0 mm 4 mps 757 mmHg 39%
    17:00 +22°C° 0 mm 5 mps 757 mmHg 44%
    18:00 +21°C° 0 mm 5 mps 757 mmHg 51%
    19:00 +19°C° 0 mm 4 mps 757 mmHg 58%
    20:00 +18°C° 0 mm 4 mps 758 mmHg 65%
    21:00 +18°C° 0 mm 4 mps 758 mmHg 67%
    22:00 +18°C° 0 mm 4 mps 758 mmHg 69%
    23:00 +17°C° 0 mm 4 mps 759 mmHg 71%

    Tomorrow, 3 April, Friday

    Time Temperature Precipitation Wind Pressure Humidity
    00:00 +17°C° 0 mm 4 mps 758 mmHg 66%
    01:00 +16°C° 0 mm 5 mps 758 mmHg 62%
    02:00 +16°C° 0 mm 6 mps 757 mmHg 57%
    03:00 +16°C° 0 mm 6 mps 757 mmHg 57%
    04:00 +16°C° 0 mm 6 mps 757 mmHg 57%
    05:00 +16°C° 0 mm 6 mps 756 mmHg 56%
    06:00 +17°C° 0 mm 6 mps 756 mmHg 53%
    07:00 +19°C° 0 mm 6 mps 756 mmHg 50%
    08:00 +20°C° 0 mm 6 mps 756 mmHg 47%
    09:00 +22°C° 0 mm 6 mps 756 mmHg 39%
    10:00 +24°C° 0 mm 6 mps 756 mmHg 31%
    11:00 +28°C° 0 mm 7 mps 756 mmHg 23%
    12:00 +29°C° 0 mm 7 mps 755 mmHg 21%
    13:00 +30°C° 0 mm 7 mps 755 mmHg 19%
    14:00 +32°C° 0 mm 7 mps 754 mmHg 18%
    15:00 +32°C° 0 mm 7 mps 754 mmHg 17%
    16:00 +32°C° 0 mm 7 mps 753 mmHg 17%
    17:00 +32°C° 0 mm 7 mps 753 mmHg 16%
    18:00 +30°C° 0 mm 7 mps 753 mmHg 18%
    19:00 +29°C° 0 mm 7 mps 753 mmHg 19%
    20:00 +27°C° 0 mm 7 mps 753 mmHg 20%
    21:00 +27°C° 0 mm 8 mps 753 mmHg 20%
    22:00 +27°C° 0 mm 9 mps 753 mmHg 20%
    23:00 +27°C° 0 mm 10 mps 753 mmHg 20%

    Day after tomorrow, 4 April, Saturday

    Time Temperature Precipitation Wind Pressure Humidity
    00:00 +26°C° 0 mm 10 mps 752 mmHg 21%
    01:00 +26°C° 0 mm 11 mps 752 mmHg 21%
    02:00 +26°C° 0 mm 11 mps 751 mmHg 22%
    03:00 +24°C° 0 mm 11 mps 751 mmHg 22%
    04:00 +24°C° 0 mm 12 mps 751 mmHg 23%
    05:00 +24°C° 0 mm 12 mps 750 mmHg 24%
    06:00 +26°C° 0 mm 12 mps 750 mmHg 23%
    07:00 +26°C° 0 mm 13 mps 750 mmHg 22%
    08:00 +27°C° 0 mm 13 mps 750 mmHg 20%
    09:00 +28°C° 0 mm 13 mps 750 mmHg 18%
    10:00 +31°C° 0 mm 13 mps 750 mmHg 16%
    11:00 +33°C° 0 mm 14 mps 749 mmHg 14%
    12:00 +34°C° 0 mm 13 mps 749 mmHg 13%
    13:00 +37°C° 0 mm 13 mps 748 mmHg 12%
    14:00 +38°C° 0 mm 12 mps 747 mmHg 12%
    15:00 +37°C° 0 mm 12 mps 747 mmHg 13%
    16:00 +36°C° 0 mm 11 mps 747 mmHg 14%
    17:00 +34°C° 0 mm 10 mps 746 mmHg 15%
    18:00 +32°C° 0 mm 9 mps 747 mmHg 22%
    19:00 +29°C° 0 mm 8 mps 748 mmHg 29%
    20:00 +26°C° 0 mm 7 mps 748 mmHg 37%
    21:00 +24°C° 0 mm 8 mps 749 mmHg 39%
    22:00 +23°C° 0 mm 8 mps 750 mmHg 41%
    23:00 +22°C° 0 mm 9 mps 751 mmHg 42%

    5 April, Sunday

    Time Temperature Precipitation Wind Pressure Humidity
    00:00 +21°C° 0 mm 10 mps 751 mmHg 52%
    01:00 +19°C° 0 mm 10 mps 751 mmHg 61%
    02:00 +18°C° 0 mm 10 mps 752 mmHg 70%
    03:00 +17°C° 0 mm 10 mps 752 mmHg 72%
    04:00 +17°C° 0 mm 10 mps 752 mmHg 74%
    05:00 +16°C° 0 mm 10 mps 752 mmHg 76%
    06:00 +16°C° 0 mm 11 mps 753 mmHg 73%
    07:00 +17°C° 0 mm 11 mps 753 mmHg 69%
    08:00 +17°C° 0 mm 11 mps 754 mmHg 66%
    09:00 +17°C° 0 mm 11 mps 754 mmHg 64%
    10:00 +17°C° 0 mm 11 mps 755 mmHg 62%
    11:00 +18°C° 0 mm 11 mps 756 mmHg 59%
    12:00 +18°C° 0 mm 11 mps 756 mmHg 57%
    13:00 +19°C° 0 mm 11 mps 756 mmHg 54%
    14:00 +19°C° 0 mm 11 mps 756 mmHg 51%
    15:00 +19°C° 0 mm 12 mps 756 mmHg 54%
    16:00 +19°C° 0 mm 12 mps 756 mmHg 56%
    17:00 +18°C° 0 mm 12 mps 756 mmHg 59%
    18:00 +18°C° 0 mm 12 mps 756 mmHg 61%
    19:00 +17°C° 0 mm 11 mps 757 mmHg 64%
    20:00 +16°C° 0 mm 10 mps 757 mmHg 66%
    21:00 +16°C° 0 mm 9 mps 758 mmHg 67%
    22:00 +16°C° 0 mm 8 mps 758 mmHg 67%
    23:00 +15°C° 0 mm 7 mps 759 mmHg 68%

    6 April, Monday

    Time Temperature Precipitation Wind Pressure Humidity
    00:00 +15°C° 0 mm 7 mps 759 mmHg 69%
    01:00 +15°C° 0 mm 7 mps 759 mmHg 70%
    02:00 +14°C° 0 mm 7 mps 759 mmHg 70%
    03:00 +14°C° 0.1 mm 6 mps 759 mmHg 72%
    04:00 +14°C° 0.1 mm 6 mps 758 mmHg 73%
    05:00 +13°C° 0.1 mm 6 mps 758 mmHg 75%
    06:00 +14°C° 0.1 mm 5 mps 759 mmHg 74%
    07:00 +14°C° 0.1 mm 5 mps 759 mmHg 74%
    08:00 +15°C° 0.1 mm 5 mps 759 mmHg 73%
    09:00 +16°C° 0 mm 5 mps 760 mmHg 68%
    10:00 +16°C° 0 mm 5 mps 760 mmHg 62%
    11:00 +17°C° 0 mm 5 mps 760 mmHg 57%
    12:00 +19°C° 0 mm 5 mps 760 mmHg 57%
    13:00 +19°C° 0 mm 5 mps 760 mmHg 57%
    14:00 +19°C° 0 mm 5 mps 760 mmHg 57%
    15:00 +17°C° 0 mm 6 mps 760 mmHg 60%
    16:00 +17°C° 0 mm 6 mps 759 mmHg 63%
    17:00 +16°C° 0 mm 6 mps 759 mmHg 66%
    18:00 +16°C° 0 mm 6 mps 760 mmHg 69%
    19:00 +15°C° 0 mm 7 mps 760 mmHg 72%
    20:00 +14°C° 0 mm 7 mps 760 mmHg 74%
    21:00 +14°C° 0 mm 7 mps 760 mmHg 75%
    22:00 +14°C° 0 mm 7 mps 761 mmHg 75%
    23:00 +14°C° 0 mm 7 mps 761 mmHg 76%

    7 April, Tuesday

    Time Temperature Precipitation Wind Pressure Humidity
    00:00 +14°C° 0 mm 7 mps 761 mmHg 76%
    01:00 +12°C° 0 mm 8 mps 761 mmHg 77%
    02:00 +12°C° 0 mm 8 mps 761 mmHg 77%
    03:00 +12°C° 0 mm 7 mps 761 mmHg 76%
    04:00 +12°C° 0 mm 7 mps 761 mmHg 76%
    05:00 +13°C° 0 mm 6 mps 761 mmHg 75%
    06:00 +12°C° 0 mm 7 mps 761 mmHg 73%
    07:00 +14°C° 0 mm 7 mps 761 mmHg 70%
    08:00 +13°C° 0 mm 8 mps 761 mmHg 67%
    09:00 +15°C° 0.1 mm 8 mps 761 mmHg 65%
    10:00 +16°C° 0.1 mm 8 mps 761 mmHg 63%
    11:00 +16°C° 0.1 mm 9 mps 761 mmHg 60%
    12:00 +16°C° 0.1 mm 9 mps 761 mmHg 60%
    13:00 +16°C° 0.1 mm 9 mps 760 mmHg 60%
    14:00 +16°C° 0.1 mm 10 mps 760 mmHg 60%
    15:00 +16°C° 0 mm 10 mps 760 mmHg 62%
    16:00 +14°C° 0 mm 10 mps 760 mmHg 64%
    17:00 +14°C° 0 mm 11 mps 760 mmHg 66%
    18:00 +13°C° 0 mm 10 mps 760 mmHg 67%
    19:00 +13°C° 0 mm 10 mps 760 mmHg 68%
    20:00 +13°C° 0 mm 9 mps 760 mmHg 70%
    21:00 +13°C° 0 mm 8 mps 760 mmHg 72%
    22:00 +14°C° 0 mm 7 mps 760 mmHg 74%
    23:00 +14°C° 0 mm 6 mps 760 mmHg 76%
    Show more